Regional Weather Roundup
Issued by NWS Midland/Odessa, TX

Skip options and go directly to product.
Home | Oldest Version | Previous Version | Current Version | All | Text Only | Save Text | Print | Product List | Glossary Off

Skip product version selection by date and time.   

114
ASUS44 KMAF 281410
RWRMAF
MIDLAND AREA WEATHER ROUNDUP
NATIONAL WEATHER SERVICE MIDLAND TX
900 AM CDT MON JUL 28 2014

...IN SOUTHWEST TEXAS AND SOUTHEAST NEW MEXICO...

CITY           SKY/WX    TMP DP  RH WIND       PRES   REMARKS
ALPINE         CLOUDY    67  61  80 W17       30.34S THUNDER
ANDREWS        FAIR      79  59  49 CALM      30.25R
ARTESIA        CLOUDY    75  57  53 NW24G30   30.29S
BIG SPRING     SUNNY     82  63  53 S8        30.22R
CARLSBAD       PTSUNNY   80  57  45 NW18      30.25R
DRYDEN           N/A     84  66  54 E12       30.15R
FORT STOCKTON  SUNNY     78  62  57 S14       30.19R
GUAD PASS      LGT RAIN  66  59  78 NE20        N/A
HOBBS          MOSUNNY   77  57  50 N9        30.30R
MARFA          CLOUDY    70  57  64 NE7       30.33R
MIDLAND AIRPK  SUNNY     81  61  51 S3        30.22R
MIDLAND INTL   SUNNY     80  62  54 S3        30.21R
ODESSA         SUNNY     81  61  50 S6        30.22R
PECOS          SUNNY     81  60  48 E6        30.17R
PRESIDIO       CLOUDY    86  56  36 N10       30.14R
SEMINOLE       SUNNY     79  58  48 N7        30.28R
SNYDER         MOSUNNY   82  60  47 NW3       30.22R
WINK           MOSUNNY   82  61  48 SE8       30.19R
$$
...OTHER STATIONS IN TEXAS...

CITY           SKY/WX    TMP DP  RH WIND       PRES   REMARKS
ABILENE        SUNNY     83  68  60 SW9       30.17R
AMARILLO       TSTM      63  61  93 NE15G22   30.38R
AUSTIN         MOSUNNY   80  72  76 SW12G22   30.13R
BROWNSVILLE    SUNNY     85  78  80 SE13      30.08R
CORPUS CHRISTI PTSUNNY   83  78  85 S10       30.09R
DALLAS FTW     PTSUNNY   86  71  60 N10       30.12R
DEL RIO        SUNNY     81  69  67 E9        30.10R
EL PASO        CLOUDY    75  62  64 N15       30.27R
HOUSTON INT    MOSUNNY   83  76  79 SW8       30.12R
LUBBOCK        PTSUNNY   74  57  55 NE16G30   30.29R
SAN ANGELO     SUNNY     81  68  64 S12       30.15R
SAN ANTONIO    PTSUNNY   80  72  76 S7        30.15R
WACO           SUNNY     83  70  64 SW3       30.11R
WICHITA FALLS  NOT AVBL
$$
...OTHER LOCATIONS IN NEW MEXICO...

CITY           SKY/WX    TMP DP  RH WIND       PRES   REMARKS
ALAMAGORDO     CLOUDY    68  66  94 SE6       30.33R
ALBUQUERQUE    CLOUDY    72  53  51 E14       30.40R
CANNON AFB     MOSUNNY   67  58  72 E17       30.38R
CLOVIS         MOSUNNY   64  55  72 NE14G23   30.40
HOLLOMAN AFB   CLOUDY    70  68  94 SE12      30.31R
ROSWELL        CLOUDY    75  57  53 NW18G25   30.31R
RUIDOSO        LGT RAIN  55  55 100 SE9       30.54F
SANTA FE       CLOUDY    61  57  87 SE3       30.48R
TRUTH OR CONSE LGT RAIN  69  62  78 N6        30.34R
TUCUMCARI      PTSUNNY   65  58  78 E10       30.38R
$$

USA.gov is the U.S. government's official web portal to all federal, state and local government web resources and services.